When you browse on this site, cookies collect data to enhance your experience and personalize the content and advertising you see.
Visit our Privacy Policy to learn more. By continuing to use the site, you agree to this use of cookies and data.
  • En España
  • Lista de países
  • Para 7 días
  • Temperatura del agua
  • El tiempo en el mapa
  • Informadores
  • user-avatar
    Iniciar sesión

    Tiempo cada hora Lublin

    Hoy, 5 Junio, Viernes

    Tiempo Temperatura Precipitaciones Viento Presión Humedad
    00:00 +11°C° 0 mm 3 mps 733 mmHg 84%
    01:00 +10°C° 0 mm 3 mps 733 mmHg 86%
    02:00 +10°C° 0 mm 4 mps 733 mmHg 92%
    03:00 +11°C° 0 mm 4 mps 732 mmHg 93%
    04:00 +11°C° 0 mm 4 mps 732 mmHg 95%
    05:00 +11°C° 0 mm 3 mps 731 mmHg 96%
    06:00 +13°C° 0 mm 4 mps 732 mmHg 92%
    07:00 +15°C° 0 mm 5 mps 732 mmHg 88%
    08:00 +16°C° 0 mm 5 mps 732 mmHg 84%
    09:00 +19°C° 0 mm 6 mps 732 mmHg 80%
    10:00 +20°C° 0 mm 6 mps 732 mmHg 75%
    11:00 +21°C° 0 mm 7 mps 732 mmHg 70%
    12:00 +21°C° 0.1 mm 7 mps 732 mmHg 71%
    13:00 +21°C° 0.1 mm 8 mps 732 mmHg 71%
    14:00 +21°C° 0.1 mm 8 mps 733 mmHg 71%
    15:00 +21°C° 0 mm 8 mps 733 mmHg 72%
    16:00 +21°C° 0 mm 8 mps 733 mmHg 73%
    17:00 +21°C° 0 mm 8 mps 733 mmHg 73%
    18:00 +20°C° 0.1 mm 7 mps 734 mmHg 77%
    19:00 +19°C° 0.1 mm 6 mps 734 mmHg 80%
    20:00 +17°C° 0.1 mm 5 mps 734 mmHg 84%
    21:00 +16°C° 0.1 mm 5 mps 734 mmHg 85%
    22:00 +17°C° 0.1 mm 4 mps 735 mmHg 86%
    23:00 +15°C° 0.1 mm 4 mps 735 mmHg 88%

    Mañana, 6 Junio, Sábado

    Tiempo Temperatura Precipitaciones Viento Presión Humedad
    00:00 +15°C° 0.9 mm 4 mps 735 mmHg 91%
    01:00 +16°C° 0.9 mm 3 mps 735 mmHg 94%
    02:00 +14°C° 0.9 mm 3 mps 736 mmHg 97%
    03:00 +13°C° 0 mm 3 mps 736 mmHg 96%
    04:00 +13°C° 0 mm 4 mps 737 mmHg 96%
    05:00 +12°C° 0 mm 4 mps 737 mmHg 95%
    06:00 +14°C° 0 mm 5 mps 738 mmHg 89%
    07:00 +15°C° 0 mm 5 mps 738 mmHg 84%
    08:00 +16°C° 0 mm 6 mps 739 mmHg 78%
    09:00 +17°C° 0 mm 6 mps 740 mmHg 74%
    10:00 +19°C° 0 mm 5 mps 740 mmHg 69%
    11:00 +20°C° 0 mm 5 mps 741 mmHg 65%
    12:00 +21°C° 0 mm 5 mps 741 mmHg 63%
    13:00 +22°C° 0 mm 4 mps 741 mmHg 62%
    14:00 +22°C° 0 mm 4 mps 741 mmHg 60%
    15:00 +23°C° 0 mm 4 mps 741 mmHg 61%
    16:00 +24°C° 0 mm 3 mps 741 mmHg 61%
    17:00 +24°C° 0 mm 3 mps 741 mmHg 62%
    18:00 +22°C° 0 mm 3 mps 741 mmHg 68%
    19:00 +20°C° 0 mm 3 mps 741 mmHg 74%
    20:00 +19°C° 0 mm 3 mps 741 mmHg 80%
    21:00 +18°C° 0.1 mm 3 mps 741 mmHg 82%
    22:00 +18°C° 0.1 mm 3 mps 741 mmHg 84%
    23:00 +17°C° 0.1 mm 3 mps 741 mmHg 86%

    Pasado mañana, 7 Junio, Domingo

    Tiempo Temperatura Precipitaciones Viento Presión Humedad
    00:00 +17°C° 0.5 mm 4 mps 740 mmHg 89%
    01:00 +17°C° 0.5 mm 4 mps 740 mmHg 91%
    02:00 +16°C° 0.5 mm 5 mps 740 mmHg 94%
    03:00 +16°C° 0.1 mm 5 mps 740 mmHg 94%
    04:00 +17°C° 0.1 mm 4 mps 740 mmHg 94%
    05:00 +17°C° 0.1 mm 4 mps 739 mmHg 94%
    06:00 +18°C° 0 mm 4 mps 739 mmHg 92%
    07:00 +19°C° 0 mm 4 mps 739 mmHg 90%
    08:00 +20°C° 0 mm 4 mps 739 mmHg 88%
    09:00 +22°C° 0 mm 4 mps 740 mmHg 83%
    10:00 +23°C° 0 mm 4 mps 740 mmHg 78%
    11:00 +25°C° 0 mm 4 mps 740 mmHg 74%
    12:00 +26°C° 0 mm 4 mps 740 mmHg 71%
    13:00 +27°C° 0 mm 4 mps 739 mmHg 68%
    14:00 +28°C° 0 mm 4 mps 739 mmHg 65%
    15:00 +27°C° 0.4 mm 4 mps 739 mmHg 67%
    16:00 +27°C° 0.4 mm 4 mps 739 mmHg 69%
    17:00 +27°C° 0.4 mm 3 mps 739 mmHg 71%
    18:00 +26°C° 0.7 mm 3 mps 740 mmHg 75%
    19:00 +24°C° 0.7 mm 3 mps 740 mmHg 78%
    20:00 +21°C° 0.7 mm 2 mps 740 mmHg 82%
    21:00 +21°C° 0.4 mm 2 mps 740 mmHg 83%
    22:00 +20°C° 0.4 mm 2 mps 741 mmHg 85%
    23:00 +20°C° 0.4 mm 1 mps 741 mmHg 87%

    8 Junio, Lunes

    Tiempo Temperatura Precipitaciones Viento Presión Humedad
    00:00 +20°C° 0.3 mm 1 mps 741 mmHg 88%
    01:00 +20°C° 0.3 mm 1 mps 741 mmHg 89%
    02:00 +20°C° 0.3 mm 1 mps 741 mmHg 91%
    03:00 +19°C° 0 mm 1 mps 741 mmHg 91%
    04:00 +18°C° 0 mm 2 mps 741 mmHg 91%
    05:00 +17°C° 0 mm 2 mps 741 mmHg 91%
    06:00 +18°C° 0 mm 2 mps 741 mmHg 88%
    07:00 +20°C° 0 mm 2 mps 741 mmHg 86%
    08:00 +21°C° 0 mm 2 mps 741 mmHg 83%
    09:00 +22°C° 0 mm 3 mps 741 mmHg 78%
    10:00 +24°C° 0 mm 3 mps 742 mmHg 72%
    11:00 +26°C° 0 mm 3 mps 742 mmHg 67%
    12:00 +26°C° 0.4 mm 3 mps 742 mmHg 67%
    13:00 +26°C° 0.4 mm 4 mps 741 mmHg 67%
    14:00 +27°C° 0.4 mm 4 mps 741 mmHg 67%
    15:00 +26°C° 0.2 mm 4 mps 741 mmHg 69%
    16:00 +26°C° 0.2 mm 5 mps 740 mmHg 70%
    17:00 +26°C° 0.2 mm 5 mps 740 mmHg 72%
    18:00 +25°C° 0.2 mm 4 mps 740 mmHg 77%
    19:00 +22°C° 0.2 mm 3 mps 740 mmHg 82%
    20:00 +21°C° 0.2 mm 3 mps 740 mmHg 87%
    21:00 +20°C° 0.3 mm 3 mps 740 mmHg 88%
    22:00 +20°C° 0.3 mm 3 mps 741 mmHg 88%
    23:00 +19°C° 0.3 mm 3 mps 741 mmHg 89%

    9 Junio, Martes

    Tiempo Temperatura Precipitaciones Viento Presión Humedad
    00:00 +19°C° 0 mm 3 mps 741 mmHg 89%
    01:00 +19°C° 0 mm 3 mps 741 mmHg 90%
    02:00 +18°C° 0 mm 3 mps 740 mmHg 91%
    03:00 +18°C° 0 mm 3 mps 740 mmHg 90%
    04:00 +18°C° 0 mm 3 mps 740 mmHg 90%
    05:00 +18°C° 0 mm 3 mps 740 mmHg 90%
    06:00 +19°C° 0 mm 3 mps 741 mmHg 88%
    07:00 +20°C° 0 mm 3 mps 741 mmHg 87%
    08:00 +20°C° 0 mm 2 mps 741 mmHg 85%
    09:00 +23°C° 0.2 mm 2 mps 741 mmHg 80%
    10:00 +24°C° 0.2 mm 2 mps 741 mmHg 74%
    11:00 +26°C° 0.2 mm 2 mps 741 mmHg 68%
    12:00 +26°C° 0.9 mm 2 mps 741 mmHg 65%
    13:00 +27°C° 0.9 mm 2 mps 741 mmHg 63%
    14:00 +27°C° 0.9 mm 1 mps 741 mmHg 60%
    15:00 +27°C° 0.2 mm 1 mps 741 mmHg 60%
    16:00 +27°C° 0.2 mm 1 mps 741 mmHg 60%
    17:00 +27°C° 0.2 mm 1 mps 741 mmHg 60%
    18:00 +26°C° 0.1 mm 1 mps 741 mmHg 67%
    19:00 +24°C° 0.1 mm 1 mps 741 mmHg 74%
    20:00 +23°C° 0.1 mm 2 mps 741 mmHg 82%
    21:00 +21°C° 0.1 mm 2 mps 742 mmHg 86%
    22:00 +20°C° 0.1 mm 2 mps 742 mmHg 90%
    23:00 +19°C° 0.1 mm 2 mps 742 mmHg 94%

    10 Junio, Miércoles

    Tiempo Temperatura Precipitaciones Viento Presión Humedad
    00:00 +18°C° 0 mm 2 mps 742 mmHg 95%
    01:00 +18°C° 0 mm 3 mps 742 mmHg 96%
    02:00 +17°C° 0 mm 3 mps 742 mmHg 97%
    03:00 +17°C° 0 mm 3 mps 742 mmHg 97%
    04:00 +17°C° 0 mm 3 mps 742 mmHg 97%
    05:00 +17°C° 0 mm 3 mps 742 mmHg 97%
    06:00 +18°C° 0 mm 3 mps 743 mmHg 97%
    07:00 +18°C° 0 mm 3 mps 743 mmHg 96%
    08:00 +18°C° 0 mm 3 mps 743 mmHg 95%
    09:00 +19°C° 0 mm 3 mps 743 mmHg 94%
    10:00 +19°C° 0 mm 3 mps 743 mmHg 93%
    11:00 +19°C° 0 mm 3 mps 743 mmHg 91%
    12:00 +20°C° 0 mm 3 mps 743 mmHg 90%
    13:00 +21°C° 0 mm 3 mps 743 mmHg 88%
    14:00 +21°C° 0 mm 3 mps 743 mmHg 86%
    15:00 +21°C° 0 mm 2 mps 743 mmHg 85%
    16:00 +23°C° 0 mm 2 mps 743 mmHg 84%
    17:00 +23°C° 0 mm 2 mps 743 mmHg 83%
    18:00 +23°C° 0 mm 2 mps 743 mmHg 85%
    19:00 +21°C° 0 mm 2 mps 743 mmHg 87%
    20:00 +21°C° 0 mm 2 mps 743 mmHg 88%
    21:00 +20°C° 0 mm 2 mps 743 mmHg 89%
    22:00 +19°C° 0 mm 2 mps 743 mmHg 91%
    23:00 +19°C° 0 mm 2 mps 743 mmHg 92%
    Mostrar más